This demonstration page uses our WeatherBlox Daily Observations layout. Learn more.

Left ArrowRight Arrow

Hourly Observations for April 24, 2020

Temp ( °F °C ) Dew Point ( °F °C ) Humidity (%) Winds ( mph kmh ) Pressure ( in mb ) Visibility ( mi km ) Precip ( " mm )
12:54 am 00:54 Mostly Cloudy 58 14.4 44 6.7 60 60 Calm 29.72 1006 10 16.0934 0 0
1:54 am 01:54 Clear 53 11.7 43 6.1 69 69 Calm 29.72 1007 10 16.0934 0 0
2:54 am 02:54 Clear 48 8.9 42 5.6 80 80 NNW 3 6 29.72 1007 10 16.0934 0 0
3:54 am 03:54 Clear 49 9.4 43 6.1 80 80 Calm 29.71 1006 10 16.0934 0 0
4:54 am 04:54 Clear 48 8.9 43 6.1 83 83 N 8 13 29.73 1007 10 16.0934 0 0
5:54 am 05:54 Clear 47 8.3 42 5.6 83 83 N 7 11 29.75 1007 10 16.0934 0 0
6:54 am 06:54 Sunny 46 7.8 42 5.6 86 86 N 10 17 29.77 1008 10 16.0934 0 0
7:54 am 07:54 Mostly Cloudy 52 11.1 46 7.8 80 80 Calm 29.8 1009 10 16.0934 0 0
8:54 am 08:54 Cloudy 58 14.4 45 7.2 62 62 NNW 13 20 29.81 1010 10 16.0934 0 0
9:54 am 09:54 Cloudy 58 14.4 44 6.7 60 60 N 13 20 29.82 1010 10 16.0934 0 0
10:54 am 10:54 Cloudy with Light Rain 58 14.4 46 7.8 65 65 N 8 13 29.82 1010 10 16.0934 0.001 0.001
11:54 am 11:54 Cloudy with Light Rain 57 13.9 49 9.4 74 74 N 9 15 29.84 1010 10 16.0934 0.01 0.254
12:54 pm 12:54 Cloudy with Light Rain 54 12.2 48 8.9 80 80 NNW 17 28 29.85 1011 8 12.87472 0.001 0.001
1:54 pm 13:54 Cloudy with Light Rain 53 11.7 49 9.4 86 86 NNW 13 20 29.86 1011 5 8.0467 0.02 0.508
2:54 pm 14:54 Cloudy with Light Rain 53 11.7 50 10 89 89 NNW 13 20 29.87 1012 3 4.82802 0.04 1.016
3:19 pm 15:19 Cloudy with Light Rain 54 12.2 50 10 87 87 NNW 9 15 29.87 1012 2.5 4.02335 0.03 0.762
3:54 pm 15:54 Cloudy with Heavy Rain 54 12.2 51 10.6 90 90 NW 10 17 29.87 1012 1.75 2.816345 0.07 1.778
4:11 pm 16:11 Cloudy with Rain 54 12.2 50 10 87 87 N 14 22 29.87 1012 2.5 4.02335 0.05 1.27
4:20 pm 16:20 Cloudy with Rain 54 12.2 50 10 87 87 N 13 20 29.86 1011 3 4.82802 0.05 1.27
4:54 pm 16:54 Cloudy with Light Rain 54 12.2 50 10 87 87 NNW 12 19 29.85 1011 10 16.0934 0.07 1.778
5:54 pm 17:54 Cloudy with Mist and Fog 56 13.3 52 11.1 87 87 N 10 17 29.86 1011 5 8.0467 0.001 0.001
6:54 pm 18:54 Cloudy with Light Rain 57 13.9 52 11.1 83 83 N 12 19 29.86 1011 5 8.0467 0.001 0.001
7:54 pm 19:54 Cloudy 56 13.3 51 10.6 84 84 undefined N/A 29.88 1012 7 11.26538 0.001 0.001
8:54 pm 20:54 Mostly Clear 53 11.7 49 9.4 86 86 N 5 7 29.91 1013 8 12.87472 0 0
9:54 pm 21:54 Mostly Clear 54 12.2 48 8.9 80 80 NNW 6 9 29.94 1014 10 16.0934 0 0
10:54 pm 22:54 Mostly Cloudy 52 11.1 46 7.8 80 80 N 7 11 29.96 1014 10 16.0934 0 0
11:54 pm 23:54 Clear 49 9.4 44 6.7 83 83 N 7 11 29.97 1015 10 16.0934 0 0

Powered by AerisWeather